Location: Smithers
(54.7670°N, 127.1670°W)
Time: 23:21:13
(UTC-07:00)

Daily predictions for brighter satellites

Satellite Brightness Start Highest point End
(mag) Time Altitude Azimuth Time Altitude Azimuth Time Altitude Azimuth
Meteor 1-28 Rocket 4.0 20:16:12 10° N 20:20:00 59° WNW 20:23:43 10° SSW
ALOS 2.4 20:15:42 10° SSE 20:20:24 83° WSW 20:25:07 10° NNW
Cosmos 1606 Rocket 4.3 20:16:34 10° SSW 20:20:53 61° WNW 20:25:17 10° N
Cosmos 1934 Rocket 4.3 20:15:57 10° SSE 20:21:37 41° E 20:27:15 10° NNE
CZ-3B DEB 3.8 20:15:40 10° SSW 20:23:38 26° SE 20:28:07 10° E
SeaSat 1 3.8 20:20:02 10° S 20:24:42 42° WSW 20:29:24 10° NW
Lacrosse 5 3.7 20:23:36 10° SE 20:24:46 11° ESE 20:25:57 10° ESE
Cosmos 1939 Rocket 3.9 20:27:47 10° ESE 20:31:23 29° ENE 20:35:01 10° N
Cosmos 482 Debris 3.4 20:31:39 10° WSW 20:33:33 35° S 20:34:59 12° ESE
In-Cosmos 22 4.2 20:29:35 10° N 20:34:57 60° ENE 20:40:11 10° SSE
Cosmos 2344 4.2 20:28:18 10° S 20:35:08 36° ESE 20:42:55 10° NE
Cosmos 1953 3.9 20:33:12 10° SE 20:35:53 17° E 20:38:36 10° NE
Resurs 01 Rocket 1.7 20:31:50 10° SSE 20:36:15 84° WSW 20:40:44 10° NNW
GP-B 4.2 20:33:07 10° SE 20:36:48 26° ENE 20:40:30 10° NNE
Cosmos 1378 3.3 20:34:09 10° NNW 20:37:58 77° W 20:41:43 10° S
Cosmos 1821 Rocket 4.1 20:33:24 10° S 20:39:44 66° E 20:46:01 10° NNE
Cosmos 1812 Rocket 3.7 20:37:07 10° S 20:41:24 52° E 20:45:41 10° NNE
Cosmos 1844 Rocket 2.9 20:37:04 10° S 20:42:30 50° ESE 20:47:56 10° NE
Cosmos 1833 Rocket 3.0 20:39:30 10° NNW 20:45:00 50° NE 20:50:13 11° ESE
Cosmos 1707 4.1 20:42:23 10° NNW 20:46:08 43° W 20:49:50 10° SSW
YAOGAN 6 4.0 20:43:57 12° ESE 20:46:29 23° ENE 20:49:27 10° N
H-2A R/B 3.3 20:44:04 10° S 20:47:56 65° WSW 20:51:53 10° NNW
Spot 1 4.3 20:44:47 10° SSE 20:49:26 77° ENE 20:54:24 10° NNW
Cosmos 2278 Rocket 3.0 20:44:54 10° SSE 20:49:40 29° ESE 20:54:29 10° NE
Cosmos 1766 Rocket 4.3 20:46:03 10° N 20:50:12 36° ENE 20:54:17 10° SE
SAR-Lupe-4 3.5 20:46:59 10° SSE 20:50:35 80° ENE 20:54:11 10° NNW
Lacrosse 5 rocket 1.3 20:47:58 10° WNW 20:52:04 75° NNE 20:55:11 15° E
Meteor 1-24 Rocket 3.9 20:47:14 10° NNW 20:52:38 74° W 20:58:10 10° S
RESURS DK-1 2.9 20:48:56 10° NW 20:53:02 58° WSW 20:57:05 10° SSE
Cosmos 1076 Rocket 3.7 20:52:10 10° N 20:56:21 50° ENE 21:00:29 10° SSE
Cosmos 1605 Rocket 4.2 20:51:32 10° SSE 20:57:35 53° E 21:03:45 10° NNE
Cosmos 2228 4.1 20:54:27 10° SSW 20:58:34 49° WNW 21:02:44 10° N
Cosmos 2150 Rocket 4.0 20:54:14 10° S 20:59:16 58° ESE 21:04:22 10° NNE
Spot 2 Rocket 4.2 20:55:25 10° S 21:00:27 59° WSW 21:05:33 10° NNW
H-2A R/B 3.7 20:57:46 13° E 21:00:47 19° NE 21:04:28 10° N
Cosmos 2123 Rocket 4.1 20:55:42 10° NNW 21:02:04 83° W 21:08:23 10° S
NOSS 2-1 (C) 4.5 20:58:11 10° WSW 21:02:14 51° NNW 21:07:20 10° NE
Cosmos 1766 3.2 21:01:06 10° S 21:04:56 65° E 21:08:49 10° NNE
Cosmos 158 Rocket 4.1 21:01:54 10° NNW 21:06:53 57° ENE 21:11:02 15° SE
Cosmos 2084 Rocket 3.1 21:03:39 10° SW 21:07:36 67° SE 21:11:26 10° NE
Cosmos 2263 Rocket 3.5 21:02:21 10° WSW 21:07:43 42° NW 21:13:04 10° NNE
SAR-Lupe-1 4.3 21:06:21 10° S 21:09:56 74° WSW 21:13:33 10° NNW
Terra 3.8 21:08:46 11° ENE 21:10:42 14° NE 21:12:59 10° NNE
Cosmos 2082 Rocket 2.2 21:06:39 10° NNW 21:12:25 75° NE 21:17:10 15° SE
USA 215 3.9 21:07:53 10° ENE 21:13:34 31° SE 21:19:12 10° SSW
Timation 2 Rocket 4.0 21:08:06 10° NW 21:14:39 72° NE 21:19:37 17° SE
Cosmos 1898 Rocket 3.5 21:09:30 10° SSW 21:14:50 89° ESE 21:20:09 10° NNE
Cosmos 1271 Rocket 4.2 21:16:40 20° E 21:16:42 20° E 21:19:40 10° NE
Envisat 3.0 21:13:06 10° SSE 21:18:12 85° ENE 21:23:20 10° NNW
Cosmos 1544 3.3 21:14:58 10° S 21:18:28 47° E 21:22:02 10° NNE
Meteor 1-4 Rocket 3.1 21:16:42 19° SSE 21:18:35 32° E 21:21:44 10° NNE
Cosmos 990 Rocket 4.0 21:13:28 10° SSW 21:18:39 64° ESE 21:23:52 10° NNE
Helios 1B rocket 2.5 21:15:06 10° NNE 21:19:13 57° ESE 21:23:17 10° S
Cosmos 1048 Rocket 3.9 21:15:56 10° NNW 21:21:08 81° ENE 21:25:18 16° SSE
Cosmos 1743 Rocket 4.2 21:18:16 10° N 21:22:23 36° ENE 21:24:24 24° ESE
Cosmos 1125 Rocket 4.2 21:19:02 10° SSE 21:23:30 30° ESE 21:28:01 10° NE
Helios 1A 3.7 21:20:06 10° S 21:24:11 55° WSW 21:28:20 10° NNW
Cosmos-2242 3.8 21:23:52 24° SE 21:25:19 30° E 21:29:04 10° NNE
Cosmos 1500 Rocket 4.5 21:21:42 10° N 21:25:34 30° ENE 21:26:59 25° ESE
Geosat 3.9 21:21:14 10° NE 21:26:17 70° ESE 21:31:18 10° SSW
SJ-11-01 4.3 21:21:41 10° SSE 21:26:27 88° WSW 21:31:12 10° NNW
COSMOS 2487 2.4 21:23:51 10° NNW 21:27:27 76° ENE 21:29:19 26° SE
Meteor 1-29 3.0 21:24:30 10° NNE 21:27:54 56° ESE 21:31:20 10° S
Meteor 1-21 Rocket 4.3 21:23:40 10° NNW 21:29:28 90° ENE 21:35:20 10° SSE
H-2A R/B 3.5 21:30:47 18° ENE 21:31:35 19° NE 21:34:31 10° N
Cosmos 1818 4.0 21:27:45 10° NW 21:33:07 59° SW 21:37:17 17° SSE
Cosmos 1184 Rocket 3.7 21:32:05 10° N 21:35:13 32° ENE 21:35:33 32° E
USA 186 3.8 21:35:39 10° SW 21:37:23 19° W 21:39:05 10° NW
Lacrosse 4 Rocket 1.2 21:33:38 10° SW 21:37:42 88° SE 21:41:48 10° NE
Cosmos 1844 3.7 21:34:17 10° SSW 21:40:04 89° ESE 21:45:57 10° NE
CZ-4B DEB 4.1 21:38:34 10° S 21:41:30 38° W 21:44:27 10° NNW
Cosmos 1674 2.6 21:38:05 10° NNW 21:41:53 87° WSW 21:44:10 23° S
Cosmos 1340 Rocket 2.8 21:37:51 10° N 21:41:55 65° ENE 21:43:38 32° SE
Cosmos 1805 3.1 21:39:10 10° S 21:43:05 87° E 21:47:01 10° NNE
Cosmos 2251 Rocket 3.9 21:38:15 10° NNW 21:43:25 49° NE 21:45:45 30° ESE
SPOT 1/Viking Rocket 4.1 21:41:35 28° ESE 21:43:42 40° ENE 21:48:33 10° N
Cosmos 1437 Rocket 4.4 21:40:56 10° SW 21:44:43 38° WNW 21:48:35 10° N
Cosmos 1408 Rocket 3.7 21:42:31 10° NNW 21:47:00 79° W 21:50:27 17° S
ERS-1 Rocket 2.9 21:43:34 18° SSE 21:47:19 88° ENE 21:52:24 10° NNW
Cosmos 1937 Rocket 3.8 21:43:57 10° SW 21:49:12 70° WNW 21:54:32 10° NNE
Cosmos 1269 Rocket 4.4 21:45:18 10° NNW 21:50:32 64° WSW 21:54:28 18° S
USA 267 3.4 21:46:37 25° SE 21:50:40 68° SSW 21:57:13 10° WNW
ARGOS 3.3 21:48:37 30° SE 21:51:07 54° ENE 21:56:21 10° N
YAOGAN 11 4.1 21:50:51 31° SSE 21:53:02 73° ENE 21:57:36 10° NNW
Cosmos 1470 2.9 21:54:29 45° SE 21:55:06 50° E 21:58:58 10° NNE
Cosmos 2098 Rocket 4.4 21:48:50 10° S 21:56:06 87° E 22:03:46 10° NNE
Cosmos 1459 Rocket 4.0 21:52:49 11° S 21:58:39 61° E 22:04:44 10° NNE
MetOp-A 4.1 21:55:43 27° SSE 21:58:43 79° ENE 22:04:06 10° NNW
Cosmos 2173 Rocket 4.0 21:54:17 14° S 21:59:36 60° E 22:05:47 10° NNE
Cosmos 1758 3.4 21:56:54 10° SSW 22:00:51 74° WNW 22:04:54 10° N
Cosmos 1842 Rocket 4.4 22:02:53 32° ENE 22:02:53 32° ENE 22:06:16 10° NNE
Cosmos 1939 Rocket 4.1 22:02:35 12° SSW 22:06:13 41° W 22:10:11 10° NNW
Lacrosse 5 2.2 22:01:52 10° SSW 22:06:35 41° SE 22:06:35 41° SE
SPOT 5 3.0 22:07:47 34° SSE 22:10:12 80° ENE 22:15:34 10° NNW
Cosmos 1953 2.8 22:07:52 10° SSW 22:11:55 63° WNW 22:15:58 10° N
GP-B 4.1 22:09:38 10° SSW 22:13:55 46° W 22:18:14 10° N
Cosmos 1328 3.6 22:09:59 10° N 22:14:00 81° ENE 22:14:31 66° SSE
SL-08 RB Rocket 3.8 22:13:47 50° SE 22:14:47 64° ENE 22:19:27 10° N
BREEZE-M DEB (TANK) 4.4 22:15:35 10° WSW 22:16:19 16° SW 22:16:19 16° SW
Cosmos 2227 Rocket 4.5 22:15:46 10° NNW 22:19:20 17° N 22:22:55 10° NE
YAOGAN 6 3.6 22:18:24 29° SSW 22:19:50 45° W 22:23:27 10° NNW
SL-14 R/B 3.0 22:16:03 10° N 22:19:55 82° ENE 22:20:04 79° ESE
Cosmos 1356 Rocket 3.3 22:19:46 10° NNW 22:24:00 89° ENE 22:24:26 71° SSE
Cosmos 1733 3.1 22:24:21 73° SSW 22:24:41 87° W 22:28:37 10° NNE
Cosmos 1844 Rocket 3.9 22:21:09 10° WSW 22:26:32 43° NW 22:31:55 10° NNE
Cosmos 1833 Rocket 3.7 22:23:38 10° NW 22:28:54 41° WSW 22:31:56 23° SSW
Cosmos 1626 3.3 22:25:24 10° N 22:27:58 32° NE 22:27:58 32° NE
Meteor 1-11 4.1 22:23:54 10° NNW 22:29:32 86° ENE 22:31:20 46° SSE
Cosmos 2016 Rocket 3.9 22:27:27 31° S 22:30:33 72° E 22:36:43 10° NNE
Lacrosse 5 rocket 2.0 22:27:24 10° WNW 22:30:54 40° SW 22:30:54 40° SW
Landsat 7 3.8 22:31:53 57° E 22:32:16 59° ENE 22:36:58 10° N
NOAA 11 4.4 22:29:58 32° S 22:32:33 67° WSW 22:38:04 10° NNW
Cosmos 2278 Rocket 2.5 22:27:42 10° SW 22:33:22 69° NW 22:39:04 10° NNE
CARTOSAT-1 4.2 22:36:01 43° NE 22:36:01 43° NE 22:39:46 10° N
Cosmos 2151 2.8 22:31:29 10° NNW 22:35:48 89° W 22:35:58 83° S
Cosmos 1725 Rocket 4.0 22:34:23 47° SE 22:35:49 58° E 22:41:54 10° NNE
CZ-3B DEB 1.7 22:29:07 10° WSW 22:36:35 64° SSE 22:36:35 64° SSE
Tsikada Rocket 3.9 22:31:03 10° N 22:37:17 84° E 22:39:24 44° SSE
Cosmos 372 Rocket 3.8 22:36:55 34° SSW 22:39:10 80° ESE 22:44:22 10° NNE
H-2A R/B 2.0 22:38:24 57° SE 22:39:30 79° ENE 22:44:51 10° NNW
Cosmos 2100 Rocket 4.2 22:34:49 10° SSW 22:41:08 73° WNW 22:47:34 10° N
USA 245 4.3 22:41:20 45° S 22:43:05 77° WSW 22:49:08 10° NNW
Cosmos 2297 3.6 22:38:50 10° SSW 22:44:33 82° ESE 22:50:21 10° NE
Cosmos 1633 Rocket 4.2 22:41:46 10° N 22:45:01 32° NE 22:45:01 32° NE
Sich 1 4.0 22:42:53 10° N 22:46:12 36° NE 22:46:12 36° NE
Terra 1.9 22:47:39 59° ENE 22:47:39 59° ENE 22:52:16 10° N
Cosmos 2344 3.9 22:40:50 10° WSW 22:48:43 80° NW 22:58:34 10° NE
SL-08 R/B 4.4 22:46:45 39° S 22:49:19 82° E 22:55:46 10° NNE
Cosmos 2058 3.1 22:47:26 10° NNW 22:51:21 72° NW 22:51:21 72° NW
Meteor 2-1 Rocket 4.4 22:52:33 52° E 22:52:33 52° E 22:57:44 10° NNE
Cosmos 1271 Rocket 3.5 22:51:47 47° WSW 22:52:24 53° WNW 22:56:23 10° N
Cosmos 2219 4.5 22:48:23 10° NNW 22:53:16 29° NE 22:54:43 25° ENE
Cosmos 494 Rocket 4.3 22:48:48 10° NNW 22:53:51 58° WSW 22:54:42 51° SSW
Cosmos 1703 3.9 22:50:25 10° N 22:53:28 51° N 22:53:28 51° N
Meteor 2-17 Rocket 4.4 22:52:13 33° SSW 22:55:11 84° WNW 23:01:23 10° N
Cosmos 2082 Rocket 3.9 22:51:22 10° NW 22:56:00 26° WSW 22:59:03 17° SSW
USA 215 3.1 22:52:37 20° ENE 22:57:20 71° SSE 23:03:52 10° WSW
Cosmos 1802 Rocket 4.2 22:53:07 20° SSW 22:57:28 70° WNW 23:03:40 10° N
Timation 1 Rocket 4.4 22:55:13 10° SW 23:01:15 76° NW 23:07:19 10° NE
Cosmos-2242 4.3 23:00:39 22° WSW 23:02:50 37° WNW 23:06:51 10° N
Meteor 1-16 Rocket 4.2 23:02:24 52° SSW 23:03:59 88° WNW 23:09:59 10° NNE
Cosmos 2061 Rocket 4.5 22:58:11 12° SSW 23:04:02 61° WNW 23:10:27 10° N
Cosmos 1125 Rocket 4.1 23:00:13 10° SW 23:05:20 57° WNW 23:10:31 10° NNE
Cosmos 1805 Rocket 3.9 23:02:02 10° N 23:05:41 60° N 23:05:41 60° N
H-2A R/B 2.5 23:07:54 57° NW 23:07:54 57° NW 23:11:20 10° NNW
Lacrosse 4 Rocket 3.7 23:13:37 10° W 23:16:56 24° NNW 23:20:17 10° NNE
Cosmos 2221 3.9 23:21:38 34° NNE 23:21:38 34° NNE 23:24:10 10° NNE
Cosmos 2346 Rocket 4.4 23:14:39 10° NNW 23:20:50 78° W 23:21:44 65° SSW
SPOT 1/Viking Rocket 4.4 23:22:13 39° WSW 23:23:07 42° W 23:28:05 10° NNW
USA 267 4.4 23:33:57 28° SW 23:34:31 28° SW 23:40:02 10° WNW
SL-19 R/B 4.4 23:28:54 10° NNE 23:34:49 75° E 23:34:49 75° E
Cosmos 2297 Rocket 4.0 23:35:11 10° NNW 23:39:39 23° NNE 23:41:24 20° NE
Cosmos 1833 4.2 23:35:38 10° NNW 23:40:47 73° N 23:40:47 73° N
DMSP B5D2-2 4.5 23:39:12 10° NNE 23:43:20 57° NNE 23:43:20 57° NNE
Cosmos 2233 Rocket 3.9 23:47:02 74° WSW 23:47:23 76° WNW 23:53:34 10° N
Lacrosse 5 3.8 23:44:17 10° WSW 23:45:54 21° WSW 23:45:54 21° WSW
Nadezhda 4 Rocket 4.2 23:45:29 10° N 23:51:00 56° NE 23:51:00 56° NE
